Regional Weather Roundup
Issued by NWS

Home | Current Version | Previous Version | Text Only | Print | Product List | Glossary On
Versions: 1 2 3 4 5 6 7 8 9 10 11 12 13 14 15 16 17 18 19 20 21 22 23 24 25 26 27 28 29 30 31 32 33 34 35 36 37 38 39 40 41 42 43 44 45 46 47 48 49 50
000
ASUS46 KSTO 220209
RWRCA

NORTHERN AND CENTRAL CA REGIONAL WEATHER ROUNDUP
NATIONAL WEATHER SERVICE SACRAMENTO CA
700 PM PDT THU AUG 21 2014

NOTE: FAIR INDICATES FEW OR NO CLOUDS BELOW 12,000 FEET WITH NO
SIGNIFICANT WEATHER AND/OR OBSTRUCTIONS TO VISIBILITY.

CAZ001-003-220300-
NORTHWEST AREA

CITY           SKY/WX    TMP DP  RH WIND       PRES   REMARKS
CRESCENT CITY  SUNNY     61  54  77 W7        30.00S
ARCATA         NOT AVBL
SHELTER COVE   NOT AVBL
UKIAH          SUNNY     86  53  32 NW6       29.88S
$$

CAZ006-505>513-220300-
BAY AREA

CITY           SKY/WX    TMP DP  RH WIND       PRES   REMARKS
SANTA ROSA     SUNNY     75  58  55 S9        29.88S
SAN RAFAEL     N/A       83  MM  MM MISG
NAPA           CLEAR     73  62  68 S12       29.88S
CONCORD        CLEAR     80  53  39 W8        29.87F
OAKLAND CITY   N/A       72  MM  MM MISG
OAKLAND        PTCLDY    68  57  68 NW13      29.91S
SAN FRAN CITY  N/A       64  MM  79 MISG
SAN FRAN ARPT  PTCLDY    66  59  78 W24       29.91S
LIVERMORE      CLEAR     80  56  43 W12       29.87S
HAYWARD        CLEAR     72  58  61 NW10      29.90S
REDWOOD CITY   N/A       MM  MM  MM MISG
MOFFETT ARPT   CLEAR     70  60  70 NW13      29.91S
SAN JOSE ARPT  CLEAR     73  61  65 W12       29.89F
$$
CAZ034-037-514>518-220300-
CENTRAL COAST

CITY           SKY/WX    TMP DP  RH WIND       PRES   REMARKS
WATSONVILLE    CLEAR     65  58  78 SW10      29.94S
SALINAS        MOCLDY    64  57  77 W10       29.93S
MONTEREY       CLOUDY    63  55  77 SW8       29.95R
PT PIEDRAS BLS NOT AVBL
SAN LUIS OBISP CLEAR     69  57  65 NW10      29.91F
SANTA MARIA    CLEAR     70  57  63 NW8       29.93F
$$
CAZ015-016-220300-
NORTHERN SACRAMENTO VALLEY

CITY           SKY/WX    TMP DP  RH WIND       PRES   REMARKS
REDDING        CLEAR     90  50  25 S10       29.81S
RED BLUFF      MOCLDY    90  54  29 S15       29.83S
OROVILLE       CLEAR     88  50  27 S13       29.85S
$$
CAZ016>018-220300-
SOUTHERN SACRAMENTO VALLEY

CITY           SKY/WX    TMP DP  RH WIND       PRES   REMARKS
AUBURN         CLEAR     82  52  34 SW5       29.93S
BEALE AFB      CLEAR     87  58  38 S9        29.83F
LINCOLN        FAIR      88  50  27 S8        29.83F
MARYSVILLE     CLEAR     87  57  35 SE10      29.83F
SAC INTL ARPT  CLEAR     86  53  32 S10       29.83F
MATHER AIRPORT CLEAR     86  55  35 SW8       29.85
DOWNTOWN SAC   N/A       87  MM  MM MISG
SAC EXEC ARPT  CLEAR     86  57  37 S5        29.84F
VACAVILLE      CLEAR     83  57  41 S10       29.85F
TRAVIS AFB     CLEAR     81  60  48 SW16      29.84F
$$
CAZ019>021-220300-
SAN JOAQUIN VALLEY

CITY           SKY/WX    TMP DP  RH WIND       PRES   REMARKS
STOCKTON       CLEAR     86  60  41 NW12      29.85S
MODESTO        CLEAR     88  54  31 N9        29.84S
MERCED         CLEAR     91  53  27 NW12      29.83S
LEMOORE        CLEAR     92  53  26 N9        29.82S
FRESNO         CLEAR     94  50  22 NW9       29.82F HX  91
HANFORD        CLEAR     93  51  23 NW10      29.81F HX  90
PORTERVILLE    CLEAR     91  54  27 NW7       29.84S
BAKERSFIELD    CLEAR     92  50  23 NW8       29.83R
$$
CAZ011-012-071-220300-
NORTHERN MOUNTAINS

CITY           SKY/WX    TMP DP  RH WIND       PRES   REMARKS
YREKA          SUNNY     82  35  18 N15       29.95S
MOUNT SHASTA   SUNNY     77  34  21 VRB7      29.98R
ALTURAS        MOCLDY    79  27  14 NW15      29.99S
$$
CAZ011-012-071-220300-
SIERRA NEVADA MTNS

CITY           SKY/WX    TMP DP  RH WIND       PRES   REMARKS
BLUE CANYON    CLEAR     69  39  33 SW5       30.15F
TRUCKEE        CLEAR     70  39  32 W8        30.15S
TAHOE VLY ARPT CLEAR     71  38  29 S8        30.17R
MAMMOTH LAKES  FAIR      73  34  23 W8        30.18S
$$



USA.gov is the U.S. government's official web portal to all federal, state and local government web resources and services.